Location: Dana
(41.8364°N, 106.7042°W)
Time: 01:43:31
(UTC+00:00)

Vanguard 1 - Visible Passes

Search period start: 12 May 2026 00:00
Search period end: 22 May 2026 00:00
Orbit: 654 x 3817 km, 34.3° (Epoch: 11 May)

Date Brightness Start Highest point End Pass type
(mag) Time Alt. Az. Time Alt. Az. Time Alt. Az.
12 May 12.6 03:37:16 10° W 03:51:36 62° SSW 04:09:25 19° ESE visible
12 May 13.0 05:59:34 10° W 06:16:16 40° SSW 06:21:53 36° S visible
12 May 13.8 08:29:18 10° WSW 08:34:22 14° WSW 08:34:22 14° WSW visible
13 May 12.6 03:56:37 10° W 04:11:08 57° SSW 04:26:41 23° SE visible
13 May 13.2 06:19:34 10° W 06:35:32 34° SW 06:39:10 32° SSW visible
14 May 12.7 04:16:03 10° W 04:30:37 51° SSW 04:44:03 26° SE visible
14 May 13.3 06:39:56 10° W 06:54:43 27° SW 06:56:32 27° SSW visible
15 May 12.9 04:35:34 10° W 04:50:05 45° SSW 05:01:28 28° SSE visible
15 May 13.5 07:00:59 10° W 07:13:52 21° SW 07:13:58 21° SW visible
16 May 12.4 02:33:55 10° W 02:45:34 59° S 03:05:38 10° ESE visible
16 May 13.0 04:55:14 10° W 05:09:29 39° SSW 05:18:58 28° S visible
16 May 13.7 07:23:27 10° WSW 07:31:29 15° SW 07:31:29 15° SW visible
17 May 12.5 02:53:13 10° W 03:05:02 54° SSW 03:24:01 12° SE visible
17 May 13.2 05:15:09 10° W 05:28:51 32° SSW 05:36:32 26° S visible
18 May 12.6 03:12:35 10° W 03:24:30 48° SSW 03:41:39 14° SE visible
18 May 13.4 05:35:28 10° W 05:48:11 26° SW 05:54:09 23° SSW visible
19 May 12.8 03:32:03 10° W 03:43:57 42° SSW 03:59:20 16° SSE visible
19 May 13.5 05:56:28 10° WSW 06:07:29 20° SW 06:11:51 18° SSW visible
20 May 12.9 03:51:40 10° W 04:03:23 36° SSW 04:17:05 17° SSE visible
20 May 13.7 06:19:02 10° WSW 06:26:47 14° SW 06:29:37 13° SW visible
21 May 13.1 04:11:33 10° W 04:22:48 29° SSW 04:34:53 16° SSE visible
